This demonstration page uses our WeatherBlox Daily Observations layout. Learn more.

Left ArrowRight Arrow

34.74481, -87.66753

Hourly Observations for May 25, 2020

Temp ( °F °C ) Dew Point ( °F °C ) Humidity (%) Winds ( mph kmh ) Pressure ( in mb ) Visibility ( mi km ) Precip ( " mm )
12:53 am 00:53 Clear 71 21.7 68 20 90 90 E 3 6 29.95 1014 10 16 0.00 0.00
1:53 am 01:53 Clear 72 22.2 67 19.4 84 84 E 6 9 29.94 1014 10 16 0.00 0.00
2:53 am 02:53 Clear 70 21.1 66 18.9 87 87 SE 3 6 29.93 1014 10 16 0.00 0.00
3:53 am 03:53 Clear 69 20.6 66 18.9 90 90 ENE 3 6 29.94 1014 10 16 0.00 0.00
4:53 am 04:53 Clear 69 20.6 65 18.3 87 87 E 5 7 29.96 1015 10 16 0.00 0.00
5:53 am 05:53 Sunny 69 20.6 65 18.3 87 87 E 3 6 29.99 1016 10 16 0.00 0.00
6:53 am 06:53 Sunny 72 22.2 66 18.9 82 82 Calm 30.00 1016 10 16 0.00 0.00
7:53 am 07:53 Sunny 76 24.4 65 18.3 69 69 ESE 6 9 30.00 1016 10 16 0.00 0.00
8:53 am 08:53 Sunny 79 26.1 66 18.9 65 65 SE 6 9 30.00 1016 10 16 0.00 0.00
9:53 am 09:53 Sunny 82 27.8 67 19.4 60 60 SE 7 11 30.00 1016 10 16 0.00 0.00
10:53 am 10:53 Mostly Sunny 85 29.4 69 20.6 59 59 SE 9 15 30.00 1016 10 16 0.00 0.00
11:53 am 11:53 Partly Cloudy 86 30 69 20.6 57 57 ESE 10 17 29.99 1016 10 16 0.00 0.00
12:53 pm 12:53 Mostly Sunny 90 32.2 67 19.4 47 47 SE 8 13 29.97 1015 10 16 0.00 0.00
1:53 pm 13:53 Partly Cloudy 88 31.1 64 17.8 45 45 SSE 13 20 29.95 1014 10 16 0.00 0.00
2:53 pm 14:53 Partly Cloudy 89 31.7 65 18.3 45 45 SE 15 24 29.93 1013 10 16 0.00 0.00
3:53 pm 15:53 Mostly Sunny 91 32.8 64 17.8 41 41 SSE 12 19 29.90 1013 10 16 0.00 0.00
4:53 pm 16:53 Sunny 90 32.2 63 17.2 41 41 SSE 14 22 29.90 1013 10 16 0.00 0.00
5:53 pm 17:53 Mostly Sunny 89 31.7 62 16.7 41 41 SSE 13 20 29.88 1012 10 16 0.00 0.00
6:53 pm 18:53 Sunny 86 30 64 17.8 48 48 ESE 8 13 29.89 1012 10 16 0.00 0.00
7:53 pm 19:53 Sunny 83 28.3 64 17.8 53 53 ESE 9 15 29.91 1013 10 16 0.00 0.00
8:53 pm 20:53 Clear 80 26.7 64 17.8 58 58 E 7 11 29.93 1013 10 16 0.00 0.00
9:53 pm 21:53 Clear 78 25.6 65 18.3 64 64 E 7 11 29.94 1014 10 16 0.00 0.00
10:53 pm 22:53 Clear 79 26.1 66 18.9 65 65 ESE 10 17 29.96 1015 10 16 0.00 0.00
11:53 pm 23:53 Clear 78 25.6 65 18.3 64 64 SE 14 22 29.96 1014 10 16 0.00 0.00

Powered by AerisWeather